Houston, TX

9:11 PM CST on December 04, 2016 (GMT -0600)
Ellington

Weather History for KEFD - April, 2013

Change the Weather History Date:

Monday, April 8, 2013

  Actual Average Record
Temperature  
Mean Temperature 74 °F -  
Max Temperature 82 °F 75 °F 87 °F (1998)
Min Temperature 66 °F 57 °F 39 °F (2007)
Cooling Degree Days 9    
Growing Degree Days 24 (Base 50)    
Moisture  
Dew Point 66 °F    
Average Humidity 79    
Maximum Humidity 94    
Minimum Humidity 58    
Precipitation  
Precipitation 0.00 in - - ()
Sea Level Pressure  
Sea Level Pressure 29.85 in    
Wind  
Wind Speed 9 mph (SE)    
Max Wind Speed 16 mph    
Max Gust Speed 24 mph    
Visibility 9 miles    
Events      
Averages and records for this station are not official NWS values.
T = Trace of Precipitation, MM = Missing Value Source: NWS Daily Summary

Daily Weather History Graph

Daily Weather History Graph

Search for Another Location

Airport or City:

Trip Planner

Search our weather history database for the weather conditions in past years. The results will help you decide how hot, cold, wet, or windy it might be!

Date:

Astronomy

Apr. 08, 2013 Rise Set
Actual Time 7:01 AM CDT 7:43 PM CDT
Civil Twilight 6:37 AM CDT 8:07 PM CDT
Nautical Twilight 6:09 AM CDT 8:36 PM CDT
Astronomical Twilight 5:40 AM CDT 9:05 PM CDT
Moon 5:45 AM CDT (4/8) 6:22 PM CDT (4/8)
Length of Visible Light 13h 30m
Length of Day
12h 41m
Waning Crescent, 3% of the Moon is Illuminated
Apr 8
Waning Crescent
Apr 10
New
Apr 18
First Quarter
Apr 25
Full
May 2
Last Quarter

Hourly Weather History & Observations

Time (CDT) Temp. Heat Index Dew Point Humidity Pressure Visibility Wind Dir Wind Speed Gust Speed Precip Events Conditions
12:50 AM 68.0 °F - 62.6 °F 83% 29.90 in 10.0 mi SE 4.6 mph - N/A   Mostly Cloudy
1:50 AM 68.0 °F - 62.6 °F 83% 29.90 in 10.0 mi SE 4.6 mph - N/A   Mostly Cloudy
2:50 AM 68.0 °F - 62.6 °F 83% 29.90 in 10.0 mi SE 4.6 mph - N/A   Mostly Cloudy
3:50 AM 68.0 °F - 62.6 °F 83% 29.88 in 10.0 mi SE 4.6 mph - N/A   Mostly Cloudy
4:50 AM 68.0 °F - 62.6 °F 83% 29.86 in 10.0 mi SE 5.8 mph - N/A   Mostly Cloudy
5:50 AM 66.2 °F - 62.6 °F 88% 29.86 in 10.0 mi SE 5.8 mph - N/A   Mostly Cloudy
6:50 AM 66.2 °F - 64.4 °F 94% 29.86 in 7.0 mi SE 5.8 mph - N/A   Mostly Cloudy
7:50 AM 68.0 °F - 64.4 °F 88% 29.86 in 10.0 mi SE 9.2 mph - N/A   Mostly Cloudy
8:50 AM 71.6 °F - 64.4 °F 78% 29.86 in 10.0 mi SE 10.4 mph - N/A   Scattered Clouds
9:50 AM 73.4 °F - 68.0 °F 83% 29.86 in 10.0 mi SSE 15.0 mph - N/A   Scattered Clouds
10:50 AM 75.2 °F - 68.0 °F 78% 29.89 in 10.0 mi SSE 15.0 mph - N/A   Scattered Clouds
11:50 AM 77.0 °F - 68.0 °F 74% 29.90 in 10.0 mi SE 13.8 mph 20.7 mph N/A   Mostly Cloudy
12:50 PM 78.8 °F - 68.0 °F 69% 29.88 in 10.0 mi SSE 15.0 mph - N/A   Mostly Cloudy
1:50 PM 78.8 °F - 66.2 °F 65% 29.87 in 10.0 mi SE 16.1 mph 24.2 mph N/A   Mostly Cloudy
2:50 PM 80.6 °F 83.2 °F 68.0 °F 65% 29.84 in 10.0 mi SE 16.1 mph - N/A   Mostly Cloudy
3:50 PM 82.4 °F 84.6 °F 66.2 °F 58% 29.82 in 10.0 mi ESE 15.0 mph 24.2 mph N/A   Mostly Cloudy
4:50 PM 80.6 °F 82.3 °F 64.4 °F 58% 29.81 in 10.0 mi ESE 13.8 mph 24.2 mph N/A   Mostly Cloudy
5:50 PM 75.2 °F - 66.2 °F 73% 29.80 in 10.0 mi SE 13.8 mph 21.9 mph N/A   Overcast
6:50 PM 73.4 °F - 66.2 °F 78% 29.80 in 10.0 mi ESE 10.4 mph - N/A   Overcast
7:50 PM 71.6 °F - 66.2 °F 83% 29.82 in 6.0 mi ESE 10.4 mph - N/A   Overcast
8:50 PM 71.6 °F - 66.2 °F 83% 29.83 in 7.0 mi SE 10.4 mph - N/A   Overcast
9:50 PM 71.6 °F - 68.0 °F 88% 29.83 in 7.0 mi SE 12.7 mph - N/A   Overcast
10:50 PM 71.6 °F - 68.0 °F 88% 29.83 in 7.0 mi SE 9.2 mph - N/A   Overcast
11:50 PM 71.6 °F - 68.0 °F 88% 29.83 in 7.0 mi SE 11.5 mph - N/A   Overcast